Year,Month,Day,Hour,Minute,Value (Times are PST for temperature in C)
2009,09,20,00,00,11.40
2009,09,20,00,01,11.40
2009,09,20,00,02,11.40
2009,09,20,00,03,11.40
2009,09,20,00,04,11.40
2009,09,20,00,05,11.40
2009,09,20,00,06,11.40
2009,09,20,00,07,11.40
2009,09,20,00,08,11.40
2009,09,20,00,09,11.40
2009,09,20,00,10,11.40
2009,09,20,00,11,11.40
2009,09,20,00,12,11.40
2009,09,20,00,13,11.30
2009,09,20,00,14,11.30
2009,09,20,00,15,11.30
2009,09,20,00,16,11.30
2009,09,20,00,17,11.30
2009,09,20,00,18,11.30
2009,09,20,00,19,11.20
2009,09,20,00,20,11.20
2009,09,20,00,21,11.20
2009,09,20,00,22,11.10
2009,09,20,00,23,11.10
2009,09,20,00,24,11.10
2009,09,20,00,25,11.10
2009,09,20,00,26,11.10
2009,09,20,00,27,11.10
2009,09,20,00,28,11.00
2009,09,20,00,29,10.90
2009,09,20,00,30,10.90
2009,09,20,00,31,10.90
2009,09,20,00,32,10.90
2009,09,20,00,33,10.90
2009,09,20,00,34,10.90
2009,09,20,00,35,10.80
2009,09,20,00,36,10.90
2009,09,20,00,37,10.90
2009,09,20,00,38,11.00
2009,09,20,00,39,11.10
2009,09,20,00,40,11.20
2009,09,20,00,41,11.20
2009,09,20,00,42,11.20
2009,09,20,00,43,11.30
2009,09,20,00,44,11.30
2009,09,20,00,45,11.40
2009,09,20,00,46,11.50
2009,09,20,00,47,11.60
2009,09,20,00,48,11.90
2009,09,20,00,49,12.10
2009,09,20,00,50,12.20
2009,09,20,00,51,12.30
2009,09,20,00,52,12.40
2009,09,20,00,53,12.40
2009,09,20,00,54,12.40
2009,09,20,00,55,12.40
2009,09,20,00,56,12.40
2009,09,20,00,57,12.40
2009,09,20,00,58,12.30
2009,09,20,00,59,12.30
2009,09,20,01,00,12.50
2009,09,20,01,01,12.50
2009,09,20,01,02,12.60
2009,09,20,01,03,12.60
2009,09,20,01,04,12.70
2009,09,20,01,05,12.70
2009,09,20,01,06,12.70
2009,09,20,01,07,12.60
2009,09,20,01,08,12.60
2009,09,20,01,09,12.60
2009,09,20,01,10,12.50
2009,09,20,01,11,12.50
2009,09,20,01,12,12.50
2009,09,20,01,13,12.50
2009,09,20,01,14,12.40
2009,09,20,01,15,12.40
2009,09,20,01,16,12.40
2009,09,20,01,17,12.40
2009,09,20,01,18,12.40
2009,09,20,01,19,12.40
2009,09,20,01,20,12.30
2009,09,20,01,21,12.30
2009,09,20,01,22,12.10
2009,09,20,01,23,12.00
2009,09,20,01,24,11.90
2009,09,20,01,25,11.90
2009,09,20,01,26,11.80
2009,09,20,01,27,11.80
2009,09,20,01,28,11.60
2009,09,20,01,29,11.60
2009,09,20,01,30,11.40
2009,09,20,01,31,11.40
2009,09,20,01,32,11.30
2009,09,20,01,33,11.20
2009,09,20,01,34,11.10
2009,09,20,01,35,11.10
2009,09,20,01,36,11.00
2009,09,20,01,37,10.90
2009,09,20,01,38,10.90
2009,09,20,01,39,10.90
2009,09,20,01,40,10.80
2009,09,20,01,41,10.70
2009,09,20,01,42,10.70
2009,09,20,01,43,10.60
2009,09,20,01,44,10.60
2009,09,20,01,45,10.60
2009,09,20,01,46,10.50
2009,09,20,01,47,10.40
2009,09,20,01,48,10.40
2009,09,20,01,49,10.30
2009,09,20,01,50,10.30
2009,09,20,01,51,10.20
2009,09,20,01,52,10.20
2009,09,20,01,53,10.20
2009,09,20,01,54,10.10
2009,09,20,01,55,10.10
2009,09,20,01,56,10.10
2009,09,20,01,57,10.10
2009,09,20,01,58,10.10
2009,09,20,01,59,10.00
2009,09,20,02,00,9.90
2009,09,20,02,01,9.90
2009,09,20,02,02,9.90
2009,09,20,02,03,9.90
2009,09,20,02,04,9.80
2009,09,20,02,05,9.80
2009,09,20,02,06,9.80
2009,09,20,02,07,9.70
2009,09,20,02,08,9.70
2009,09,20,02,09,9.70
2009,09,20,02,10,9.70
2009,09,20,02,11,9.70
2009,09,20,02,12,9.70
2009,09,20,02,13,9.70
2009,09,20,02,14,9.70
2009,09,20,02,15,9.70
2009,09,20,02,16,9.70
2009,09,20,02,17,9.70
2009,09,20,02,18,9.60
2009,09,20,02,19,9.60
2009,09,20,02,20,9.60
2009,09,20,02,21,9.60
2009,09,20,02,22,9.60
2009,09,20,02,23,9.60
2009,09,20,02,24,9.60
2009,09,20,02,25,9.60
2009,09,20,02,26,9.50
2009,09,20,02,27,9.50
2009,09,20,02,28,9.50
2009,09,20,02,29,9.50
2009,09,20,02,30,9.50
2009,09,20,02,31,9.50
2009,09,20,02,32,9.50
2009,09,20,02,33,9.50
2009,09,20,02,34,9.50
2009,09,20,02,35,9.50
2009,09,20,02,36,9.50
2009,09,20,02,37,9.50
2009,09,20,02,38,9.50
2009,09,20,02,39,9.50
2009,09,20,02,40,9.50
2009,09,20,02,41,9.50
2009,09,20,02,42,9.50
2009,09,20,02,43,9.50
2009,09,20,02,44,9.50
2009,09,20,02,45,9.50
2009,09,20,02,46,9.50
2009,09,20,02,47,9.40
2009,09,20,02,48,9.40
2009,09,20,02,49,9.40
2009,09,20,02,50,9.40
2009,09,20,02,51,9.40
2009,09,20,02,52,9.40
2009,09,20,02,53,9.30
2009,09,20,02,54,9.30
2009,09,20,02,55,9.30
2009,09,20,02,56,9.30
2009,09,20,02,57,9.30
2009,09,20,02,58,9.30
2009,09,20,02,59,9.20
2009,09,20,03,00,9.20
2009,09,20,03,01,9.20
2009,09,20,03,02,9.20
2009,09,20,03,03,9.20
2009,09,20,03,04,9.20
2009,09,20,03,05,9.10
2009,09,20,03,06,9.10
2009,09,20,03,07,9.10
2009,09,20,03,08,9.10
2009,09,20,03,09,9.00
2009,09,20,03,10,9.00
2009,09,20,03,11,9.00
2009,09,20,03,12,9.00
2009,09,20,03,13,8.90
2009,09,20,03,14,8.90
2009,09,20,03,15,8.90
2009,09,20,03,16,8.90
2009,09,20,03,17,8.90
2009,09,20,03,18,8.80
2009,09,20,03,19,8.80
2009,09,20,03,20,8.70
2009,09,20,03,21,8.70
2009,09,20,03,22,8.70
2009,09,20,03,23,8.70
2009,09,20,03,24,8.70
2009,09,20,03,25,8.70
2009,09,20,03,26,8.70
2009,09,20,03,27,8.70
2009,09,20,03,28,8.70
2009,09,20,03,29,8.70
2009,09,20,03,30,8.70
2009,09,20,03,31,8.70
2009,09,20,03,32,8.70
2009,09,20,03,33,8.70
2009,09,20,03,34,8.60
2009,09,20,03,35,8.60
2009,09,20,03,36,8.60
2009,09,20,03,37,8.60
2009,09,20,03,38,8.60
2009,09,20,03,39,8.60
2009,09,20,03,40,8.50
2009,09,20,03,41,8.50
2009,09,20,03,42,8.50
2009,09,20,03,43,8.40
2009,09,20,03,44,8.40
2009,09,20,03,45,8.40
2009,09,20,03,46,8.40
2009,09,20,03,47,8.40
2009,09,20,03,48,8.40
2009,09,20,03,49,8.40
2009,09,20,03,50,8.40
2009,09,20,03,51,8.40
2009,09,20,03,52,8.40
2009,09,20,03,53,8.40
2009,09,20,03,54,8.40
2009,09,20,03,55,8.40
2009,09,20,03,56,8.40
2009,09,20,03,57,8.40
2009,09,20,03,58,8.40
2009,09,20,03,59,8.40
2009,09,20,04,00,8.40
2009,09,20,04,01,8.40
2009,09,20,04,02,8.30
2009,09,20,04,03,8.30
2009,09,20,04,04,8.30
2009,09,20,04,05,8.30
2009,09,20,04,06,8.30
2009,09,20,04,07,8.20
2009,09,20,04,08,8.20
2009,09,20,04,09,8.20
2009,09,20,04,10,8.20
2009,09,20,04,11,8.20
2009,09,20,04,12,8.20
2009,09,20,04,13,8.20
2009,09,20,04,14,8.20
2009,09,20,04,15,8.20
2009,09,20,04,16,8.20
2009,09,20,04,17,8.20
2009,09,20,04,18,8.20
2009,09,20,04,19,8.20
2009,09,20,04,20,8.20
2009,09,20,04,21,8.20
2009,09,20,04,22,8.20
2009,09,20,04,23,8.20
2009,09,20,04,24,8.20
2009,09,20,04,25,8.10
2009,09,20,04,26,8.10
2009,09,20,04,27,8.10
2009,09,20,04,28,8.10
2009,09,20,04,29,8.00
2009,09,20,04,30,8.00
2009,09,20,04,31,8.00
2009,09,20,04,32,7.90
2009,09,20,04,33,7.90
2009,09,20,04,34,7.90
2009,09,20,04,35,7.90
2009,09,20,04,36,7.90
2009,09,20,04,37,7.80
2009,09,20,04,38,7.80
2009,09,20,04,39,7.80
2009,09,20,04,40,7.80
2009,09,20,04,41,7.80
2009,09,20,04,42,7.80
2009,09,20,04,43,7.80
2009,09,20,04,44,7.80
2009,09,20,04,45,7.80
2009,09,20,04,46,7.80
2009,09,20,04,47,7.80
2009,09,20,04,48,7.80
2009,09,20,04,49,7.80
2009,09,20,04,50,7.80
2009,09,20,04,51,7.80
2009,09,20,04,52,7.80
2009,09,20,04,53,7.80
2009,09,20,04,54,7.80
2009,09,20,04,55,7.70
2009,09,20,04,56,7.70
2009,09,20,04,57,7.70
2009,09,20,04,58,7.70
2009,09,20,04,59,7.60
2009,09,20,05,00,7.60
2009,09,20,05,01,7.60
2009,09,20,05,02,7.60
2009,09,20,05,03,7.60
2009,09,20,05,04,7.60
2009,09,20,05,05,7.60
2009,09,20,05,06,7.50
2009,09,20,05,07,7.50
2009,09,20,05,08,7.50
2009,09,20,05,09,7.50
2009,09,20,05,10,7.50
2009,09,20,05,11,7.50
2009,09,20,05,12,7.50
2009,09,20,05,13,7.50
2009,09,20,05,14,7.50
2009,09,20,05,15,7.50
2009,09,20,05,16,7.50
2009,09,20,05,17,7.50
2009,09,20,05,18,7.40
2009,09,20,05,19,7.40
2009,09,20,05,20,7.40
2009,09,20,05,21,7.40
2009,09,20,05,22,7.40
2009,09,20,05,23,7.40
2009,09,20,05,24,7.40
2009,09,20,05,25,7.30
2009,09,20,05,26,7.30
2009,09,20,05,27,7.30
2009,09,20,05,28,7.30
2009,09,20,05,29,7.30
2009,09,20,05,30,7.30
2009,09,20,05,31,7.30
2009,09,20,05,32,7.30
2009,09,20,05,33,7.30
2009,09,20,05,34,7.30
2009,09,20,05,35,7.30
2009,09,20,05,36,7.30
2009,09,20,05,37,7.30
2009,09,20,05,38,7.30
2009,09,20,05,39,7.30
2009,09,20,05,40,7.30
2009,09,20,05,41,7.30
2009,09,20,05,42,7.30
2009,09,20,05,43,7.30
2009,09,20,05,44,7.30
2009,09,20,05,45,7.20
2009,09,20,05,46,7.20
2009,09,20,05,47,7.20
2009,09,20,05,48,7.20
2009,09,20,05,49,7.20
2009,09,20,05,50,7.20
2009,09,20,05,51,7.20
2009,09,20,05,52,7.20
2009,09,20,05,53,7.20
2009,09,20,05,54,7.20
2009,09,20,05,55,7.20
2009,09,20,05,56,7.20
2009,09,20,05,57,7.20
2009,09,20,05,58,7.20
2009,09,20,05,59,7.20
2009,09,20,06,00,7.20
2009,09,20,06,01,7.10
2009,09,20,06,02,7.10
2009,09,20,06,03,7.10
2009,09,20,06,04,7.10
2009,09,20,06,05,7.10
2009,09,20,06,06,7.10
2009,09,20,06,07,7.10
2009,09,20,06,08,7.10
2009,09,20,06,09,7.10
2009,09,20,06,10,7.10
2009,09,20,06,11,7.10
2009,09,20,06,12,7.00
2009,09,20,06,13,7.00
2009,09,20,06,14,7.00
2009,09,20,06,15,7.00
2009,09,20,06,16,7.00
2009,09,20,06,17,7.00
2009,09,20,06,18,7.00
2009,09,20,06,19,7.00
2009,09,20,06,20,7.00
2009,09,20,06,21,7.00
2009,09,20,06,22,7.00
2009,09,20,06,23,7.00
2009,09,20,06,24,7.00
2009,09,20,06,25,7.00
2009,09,20,06,26,7.00
2009,09,20,06,27,7.00
2009,09,20,06,28,7.00
2009,09,20,06,29,7.00
2009,09,20,06,30,7.00
2009,09,20,06,31,7.00
2009,09,20,06,32,7.00
2009,09,20,06,33,7.00
2009,09,20,06,34,7.00
2009,09,20,06,35,7.00
2009,09,20,06,36,7.00
2009,09,20,06,37,7.00
2009,09,20,06,38,7.00
2009,09,20,06,39,7.00
2009,09,20,06,40,6.90
2009,09,20,06,41,6.90
2009,09,20,06,42,6.90
2009,09,20,06,43,6.90
2009,09,20,06,44,6.90
2009,09,20,06,45,6.90
2009,09,20,06,46,6.90
2009,09,20,06,47,6.90
2009,09,20,06,48,7.00
2009,09,20,06,49,7.00
2009,09,20,06,50,7.00
2009,09,20,06,51,7.00
2009,09,20,06,52,7.00
2009,09,20,06,53,7.00
2009,09,20,06,54,7.00
2009,09,20,06,55,7.00
2009,09,20,06,56,6.90
2009,09,20,06,57,6.90
2009,09,20,06,58,6.90
2009,09,20,06,59,6.90
2009,09,20,07,00,6.90
2009,09,20,07,01,6.90
2009,09,20,07,02,6.90
2009,09,20,07,03,6.90
2009,09,20,07,04,6.90
2009,09,20,07,05,6.90
2009,09,20,07,06,6.90
2009,09,20,07,07,6.90
2009,09,20,07,08,6.90
2009,09,20,07,09,6.90
2009,09,20,07,10,6.80
2009,09,20,07,11,6.80
2009,09,20,07,12,6.80
2009,09,20,07,13,6.80
2009,09,20,07,14,6.80
2009,09,20,07,15,6.80
2009,09,20,07,16,6.80
2009,09,20,07,17,6.80
2009,09,20,07,18,6.80
2009,09,20,07,19,6.80
2009,09,20,07,20,6.80
2009,09,20,07,21,6.80
2009,09,20,07,22,6.80
2009,09,20,07,23,6.80
2009,09,20,07,24,6.80
2009,09,20,07,25,6.80
2009,09,20,07,26,6.80
2009,09,20,07,27,6.80
2009,09,20,07,28,6.80
2009,09,20,07,29,6.80
2009,09,20,07,30,6.80
2009,09,20,07,31,6.80
2009,09,20,07,32,6.80
2009,09,20,07,33,6.80
2009,09,20,07,34,6.80
2009,09,20,07,35,6.80
2009,09,20,07,36,6.80
2009,09,20,07,37,6.80
2009,09,20,07,38,6.80
2009,09,20,07,39,6.80
2009,09,20,07,40,6.80
2009,09,20,07,41,6.80
2009,09,20,07,42,6.80
2009,09,20,07,43,6.80
2009,09,20,07,44,6.80
2009,09,20,07,45,6.80
2009,09,20,07,46,6.80
2009,09,20,07,47,6.80
2009,09,20,07,48,6.80
2009,09,20,07,49,6.80
2009,09,20,07,50,6.80
2009,09,20,07,51,6.80
2009,09,20,07,52,6.80
2009,09,20,07,53,6.80
2009,09,20,07,54,6.90
2009,09,20,07,55,6.90
2009,09,20,07,56,6.90
2009,09,20,07,57,6.90
2009,09,20,07,58,6.90
2009,09,20,07,59,6.90
2009,09,20,08,00,6.90
2009,09,20,08,01,6.90
2009,09,20,08,02,6.90
2009,09,20,08,03,6.90
2009,09,20,08,04,6.90
2009,09,20,08,05,6.90
2009,09,20,08,06,7.00
2009,09,20,08,07,7.00
2009,09,20,08,08,7.00
2009,09,20,08,09,7.00
2009,09,20,08,10,7.00
2009,09,20,08,11,7.00
2009,09,20,08,12,7.10
2009,09,20,08,13,7.10
2009,09,20,08,14,7.10
2009,09,20,08,15,7.10
2009,09,20,08,16,7.10
2009,09,20,08,17,7.20
2009,09,20,08,18,7.20
2009,09,20,08,19,7.20
2009,09,20,08,20,7.20
2009,09,20,08,21,7.20
2009,09,20,08,22,7.20
2009,09,20,08,23,7.20
2009,09,20,08,24,7.30
2009,09,20,08,25,7.30
2009,09,20,08,26,7.30
2009,09,20,08,27,7.30
2009,09,20,08,28,7.30
2009,09,20,08,29,7.30
2009,09,20,08,30,7.30
2009,09,20,08,31,7.30
2009,09,20,08,32,7.30
2009,09,20,08,33,7.30
2009,09,20,08,34,7.40
2009,09,20,08,35,7.40
2009,09,20,08,36,7.40
2009,09,20,08,37,7.40
2009,09,20,08,38,7.40
2009,09,20,08,39,7.50
2009,09,20,08,40,7.50
2009,09,20,08,41,7.50
2009,09,20,08,42,7.50
2009,09,20,08,43,7.60
2009,09,20,08,44,7.60
2009,09,20,08,45,7.60
2009,09,20,08,46,7.60
2009,09,20,08,47,7.60
2009,09,20,08,48,7.60
2009,09,20,08,49,7.70
2009,09,20,08,50,7.70
2009,09,20,08,51,7.70
2009,09,20,08,52,7.80
2009,09,20,08,53,7.80
2009,09,20,08,54,7.80
2009,09,20,08,55,7.90
2009,09,20,08,56,7.90
2009,09,20,08,57,8.00
2009,09,20,08,58,8.00
2009,09,20,08,59,8.00
2009,09,20,09,00,8.10
2009,09,20,09,01,8.10
2009,09,20,09,02,8.10
2009,09,20,09,03,8.20
2009,09,20,09,04,8.20
2009,09,20,09,05,8.20
2009,09,20,09,06,8.20
2009,09,20,09,07,8.30
2009,09,20,09,08,8.30
2009,09,20,09,09,8.40
2009,09,20,09,10,8.50
2009,09,20,09,11,8.50
2009,09,20,09,12,8.60
2009,09,20,09,13,8.60
2009,09,20,09,14,8.70
2009,09,20,09,15,8.70
2009,09,20,09,16,8.70
2009,09,20,09,17,8.80
2009,09,20,09,18,8.80
2009,09,20,09,19,8.90
2009,09,20,09,20,9.00
2009,09,20,09,21,9.00
2009,09,20,09,22,9.10
2009,09,20,09,23,9.20
2009,09,20,09,24,9.30
2009,09,20,09,25,9.40
2009,09,20,09,26,9.50
2009,09,20,09,27,9.50
2009,09,20,09,28,9.60
2009,09,20,09,29,9.70
2009,09,20,09,30,9.70
2009,09,20,09,31,9.80
2009,09,20,09,32,9.90
2009,09,20,09,33,9.90
2009,09,20,09,34,9.90
2009,09,20,09,35,10.10
2009,09,20,09,36,10.10
2009,09,20,09,37,10.20
2009,09,20,09,38,10.30
2009,09,20,09,39,10.40
2009,09,20,09,40,10.40
2009,09,20,09,41,10.60
2009,09,20,09,42,10.60
2009,09,20,09,43,10.80
2009,09,20,09,44,10.80
2009,09,20,09,45,10.90
2009,09,20,09,46,11.10
2009,09,20,09,47,11.20
2009,09,20,09,48,11.30
2009,09,20,09,49,11.40
2009,09,20,09,50,11.50
2009,09,20,09,51,11.60
2009,09,20,09,52,11.80
2009,09,20,09,53,11.90
2009,09,20,09,54,12.00
2009,09,20,09,55,12.10
2009,09,20,09,56,12.20
2009,09,20,09,57,12.20
2009,09,20,09,58,12.30
2009,09,20,09,59,12.40
2009,09,20,10,00,12.40
2009,09,20,10,01,12.50
2009,09,20,10,02,12.60
2009,09,20,10,03,12.60
2009,09,20,10,04,12.70
2009,09,20,10,05,12.80
2009,09,20,10,06,12.80
2009,09,20,10,07,12.90
2009,09,20,10,08,13.00
2009,09,20,10,09,13.00
2009,09,20,10,10,13.10
2009,09,20,10,11,13.20
2009,09,20,10,12,13.30
2009,09,20,10,13,13.30
2009,09,20,10,14,13.40
2009,09,20,10,15,13.50
2009,09,20,10,16,13.60
2009,09,20,10,17,13.60
2009,09,20,10,18,13.70
2009,09,20,10,19,13.80
2009,09,20,10,20,13.90
2009,09,20,10,21,14.00
2009,09,20,10,22,14.20
2009,09,20,10,23,14.20
2009,09,20,10,24,14.40
2009,09,20,10,25,14.50
2009,09,20,10,26,14.50
2009,09,20,10,27,14.60
2009,09,20,10,28,14.70
2009,09,20,10,29,14.70
2009,09,20,10,30,14.80
2009,09,20,10,31,14.80
2009,09,20,10,32,14.80
2009,09,20,10,33,14.80
2009,09,20,10,34,14.80
2009,09,20,10,35,14.80
2009,09,20,10,36,14.80
2009,09,20,10,37,14.80
2009,09,20,10,38,14.80
2009,09,20,10,39,14.80
2009,09,20,10,40,14.80
2009,09,20,10,41,14.80
2009,09,20,10,42,14.80
2009,09,20,10,43,14.80
2009,09,20,10,44,14.80
2009,09,20,10,45,14.80
2009,09,20,10,46,14.80
2009,09,20,10,47,14.80
2009,09,20,10,48,14.80
2009,09,20,10,49,14.80
2009,09,20,10,50,14.80
2009,09,20,10,51,14.80
2009,09,20,10,52,14.80
2009,09,20,10,53,14.80
2009,09,20,10,54,14.80
2009,09,20,10,55,14.80
2009,09,20,10,56,14.80
2009,09,20,10,57,14.80
2009,09,20,10,58,14.80
2009,09,20,10,59,14.80
2009,09,20,11,00,14.80
2009,09,20,11,01,14.80
2009,09,20,11,02,14.80
2009,09,20,11,03,14.80
2009,09,20,11,04,14.80
2009,09,20,11,05,14.80
2009,09,20,11,06,14.80
2009,09,20,11,07,14.80
2009,09,20,11,08,14.80
2009,09,20,11,09,14.80
2009,09,20,11,10,14.80
2009,09,20,11,11,14.80
2009,09,20,11,12,14.80
2009,09,20,11,13,14.90
2009,09,20,11,14,14.90
2009,09,20,11,15,15.00
2009,09,20,11,16,15.00
2009,09,20,11,17,15.10
2009,09,20,11,18,15.10
2009,09,20,11,19,15.10
2009,09,20,11,20,15.20
2009,09,20,11,21,15.20
2009,09,20,11,22,15.30
2009,09,20,11,23,15.30
2009,09,20,11,24,15.30
2009,09,20,11,25,15.30
2009,09,20,11,26,15.40
2009,09,20,11,27,15.50
2009,09,20,11,28,15.50
2009,09,20,11,29,15.60
2009,09,20,11,30,15.60
2009,09,20,11,31,15.60
2009,09,20,11,32,15.60
2009,09,20,11,33,15.60
2009,09,20,11,34,15.70
2009,09,20,11,35,15.70
2009,09,20,11,36,15.80
2009,09,20,11,37,15.80
2009,09,20,11,38,15.80
2009,09,20,11,39,15.80
2009,09,20,11,40,15.80
2009,09,20,11,41,15.80
2009,09,20,11,42,15.80
2009,09,20,11,43,15.80
2009,09,20,11,44,15.90
2009,09,20,11,45,15.90
2009,09,20,11,46,15.90
2009,09,20,11,47,15.90
2009,09,20,11,48,15.90
2009,09,20,11,49,15.90
2009,09,20,11,50,15.90
2009,09,20,11,51,15.90
2009,09,20,11,52,16.00
2009,09,20,11,53,16.10
2009,09,20,11,54,16.10
2009,09,20,11,55,16.10
2009,09,20,11,56,16.10
2009,09,20,11,57,16.20
2009,09,20,11,58,16.20
2009,09,20,11,59,16.20
2009,09,20,12,00,16.30
2009,09,20,12,01,16.30
2009,09,20,12,02,16.30
2009,09,20,12,03,16.30
2009,09,20,12,04,16.30
2009,09,20,12,05,16.30
2009,09,20,12,06,16.30
2009,09,20,12,07,16.30
2009,09,20,12,08,16.30
2009,09,20,12,09,16.20
2009,09,20,12,10,16.20
2009,09,20,12,11,16.20
2009,09,20,12,12,16.20
2009,09,20,12,13,16.20
2009,09,20,12,14,16.20
2009,09,20,12,15,16.20
2009,09,20,12,16,16.20
2009,09,20,12,17,16.20
2009,09,20,12,18,16.30
2009,09,20,12,19,16.30
2009,09,20,12,20,16.40
2009,09,20,12,21,16.40
2009,09,20,12,22,16.40
2009,09,20,12,23,16.40
2009,09,20,12,24,16.40
2009,09,20,12,25,16.40
2009,09,20,12,26,16.40
2009,09,20,12,27,16.40
2009,09,20,12,28,16.40
2009,09,20,12,29,16.40
2009,09,20,12,30,16.40
2009,09,20,12,31,16.40
2009,09,20,12,32,16.40
2009,09,20,12,33,16.40
2009,09,20,12,34,16.40
2009,09,20,12,35,16.40
2009,09,20,12,36,16.40
2009,09,20,12,37,16.40
2009,09,20,12,38,16.50
2009,09,20,12,39,16.60
2009,09,20,12,40,16.60
2009,09,20,12,41,16.60
2009,09,20,12,42,16.60
2009,09,20,12,43,16.60
2009,09,20,12,44,16.60
2009,09,20,12,45,16.60
2009,09,20,12,46,16.60
2009,09,20,12,47,16.60
2009,09,20,12,48,16.70
2009,09,20,12,49,16.70
2009,09,20,12,50,16.70
2009,09,20,12,51,16.70
2009,09,20,12,52,16.70
2009,09,20,12,53,16.70
2009,09,20,12,54,16.70
2009,09,20,12,55,16.70
2009,09,20,12,56,16.70
2009,09,20,12,57,16.70
2009,09,20,12,58,16.70
2009,09,20,12,59,16.70
2009,09,20,13,00,16.70
2009,09,20,13,01,16.80
2009,09,20,13,02,16.80
2009,09,20,13,03,16.80
2009,09,20,13,04,16.80
2009,09,20,13,05,16.90
2009,09,20,13,06,16.90
2009,09,20,13,07,16.90
2009,09,20,13,08,16.90
2009,09,20,13,09,16.90
2009,09,20,13,10,16.90
2009,09,20,13,11,16.90
2009,09,20,13,12,16.90
2009,09,20,13,13,16.90
2009,09,20,13,14,16.90
2009,09,20,13,15,16.90
2009,09,20,13,16,16.90
2009,09,20,13,17,16.90
2009,09,20,13,18,16.90
2009,09,20,13,19,16.90
2009,09,20,13,20,16.90
2009,09,20,13,21,16.90
2009,09,20,13,22,16.90
2009,09,20,13,23,17.00
2009,09,20,13,24,17.00
2009,09,20,13,25,17.00
2009,09,20,13,26,17.00
2009,09,20,13,27,17.00
2009,09,20,13,28,17.00
2009,09,20,13,29,17.00
2009,09,20,13,30,17.00
2009,09,20,13,31,17.10
2009,09,20,13,32,17.10
2009,09,20,13,33,17.10
2009,09,20,13,34,17.10
2009,09,20,13,35,17.10
2009,09,20,13,36,17.10
2009,09,20,13,37,17.10
2009,09,20,13,38,17.10
2009,09,20,13,39,17.10
2009,09,20,13,40,17.10
2009,09,20,13,41,17.10
2009,09,20,13,42,17.20
2009,09,20,13,43,17.20
2009,09,20,13,44,17.20
2009,09,20,13,45,17.30
2009,09,20,13,46,17.30
2009,09,20,13,47,17.30
2009,09,20,13,48,17.30
2009,09,20,13,49,17.40
2009,09,20,13,50,17.40
2009,09,20,13,51,17.40
2009,09,20,13,52,17.40
2009,09,20,13,53,17.40
2009,09,20,13,54,17.50
2009,09,20,13,55,17.50
2009,09,20,13,56,17.60
2009,09,20,13,57,17.70
2009,09,20,13,58,17.70
2009,09,20,13,59,17.70
2009,09,20,14,00,17.70
2009,09,20,14,01,17.70
2009,09,20,14,02,17.70
2009,09,20,14,03,17.70
2009,09,20,14,04,17.70
2009,09,20,14,05,17.70
2009,09,20,14,06,17.70
2009,09,20,14,07,17.70
2009,09,20,14,08,17.80
2009,09,20,14,09,17.90
2009,09,20,14,10,17.90
2009,09,20,14,11,17.90
2009,09,20,14,12,18.00
2009,09,20,14,13,17.90
2009,09,20,14,14,17.90
2009,09,20,14,15,17.90
2009,09,20,14,16,17.90
2009,09,20,14,17,17.90
2009,09,20,14,18,17.90
2009,09,20,14,19,17.90
2009,09,20,14,20,17.80
2009,09,20,14,21,17.90
2009,09,20,14,22,17.90
2009,09,20,14,23,17.90
2009,09,20,14,24,17.90
2009,09,20,14,25,18.00
2009,09,20,14,26,18.10
2009,09,20,14,27,18.10
2009,09,20,14,28,18.20
2009,09,20,14,29,18.20
2009,09,20,14,30,18.20
2009,09,20,14,31,18.20
2009,09,20,14,32,18.30
2009,09,20,14,33,18.40
2009,09,20,14,34,18.40
2009,09,20,14,35,18.40
2009,09,20,14,36,18.40
2009,09,20,14,37,18.40
2009,09,20,14,38,18.30
2009,09,20,14,39,18.30
2009,09,20,14,40,18.30
2009,09,20,14,41,18.30
2009,09,20,14,42,18.30
2009,09,20,14,43,18.30
2009,09,20,14,44,18.40
2009,09,20,14,45,18.40
2009,09,20,14,46,18.50
2009,09,20,14,47,18.50
2009,09,20,14,48,18.60
2009,09,20,14,49,18.60
2009,09,20,14,50,18.60
2009,09,20,14,51,18.60
2009,09,20,14,52,18.60
2009,09,20,14,53,18.60
2009,09,20,14,54,18.50
2009,09,20,14,55,18.50
2009,09,20,14,56,18.50
2009,09,20,14,57,18.50
2009,09,20,14,58,18.50
2009,09,20,14,59,18.60
2009,09,20,15,00,18.60
2009,09,20,15,01,18.70
2009,09,20,15,02,18.70
2009,09,20,15,03,18.60
2009,09,20,15,04,18.50
2009,09,20,15,05,18.50
2009,09,20,15,06,18.30
2009,09,20,15,07,18.30
2009,09,20,15,08,18.20
2009,09,20,15,09,18.20
2009,09,20,15,10,18.20
2009,09,20,15,11,18.20
2009,09,20,15,12,18.20
2009,09,20,15,13,18.10
2009,09,20,15,14,18.10
2009,09,20,15,15,18.10
2009,09,20,15,16,18.10
2009,09,20,15,17,18.10
2009,09,20,15,18,18.10
2009,09,20,15,19,18.10
2009,09,20,15,20,18.10
2009,09,20,15,21,18.20
2009,09,20,15,22,18.20
2009,09,20,15,23,18.20
2009,09,20,15,24,18.20
2009,09,20,15,25,18.20
2009,09,20,15,26,18.10
2009,09,20,15,27,18.00
2009,09,20,15,28,17.90
2009,09,20,15,29,17.90
2009,09,20,15,30,17.90
2009,09,20,15,31,17.90
2009,09,20,15,32,17.90
2009,09,20,15,33,17.80
2009,09,20,15,34,17.80
2009,09,20,15,35,17.80
2009,09,20,15,36,17.80
2009,09,20,15,37,17.70
2009,09,20,15,38,17.70
2009,09,20,15,39,17.70
2009,09,20,15,40,17.60
2009,09,20,15,41,17.50
2009,09,20,15,42,17.50
2009,09,20,15,43,17.40
2009,09,20,15,44,17.30
2009,09,20,15,45,17.30
2009,09,20,15,46,17.20
2009,09,20,15,47,17.10
2009,09,20,15,48,17.10
2009,09,20,15,49,17.00
2009,09,20,15,50,17.00
2009,09,20,15,51,17.00
2009,09,20,15,52,17.00
2009,09,20,15,53,16.90
2009,09,20,15,54,16.90
2009,09,20,15,55,16.90
2009,09,20,15,56,16.90
2009,09,20,15,57,16.90
2009,09,20,15,58,16.90
2009,09,20,15,59,16.80
2009,09,20,16,00,16.80
2009,09,20,16,01,16.80
2009,09,20,16,02,16.80
2009,09,20,16,03,16.80
2009,09,20,16,04,16.80
2009,09,20,16,05,16.80
2009,09,20,16,06,16.80
2009,09,20,16,07,16.80
2009,09,20,16,08,16.80
2009,09,20,16,09,16.80
2009,09,20,16,10,16.80
2009,09,20,16,11,16.80
2009,09,20,16,12,16.80
2009,09,20,16,13,16.80
2009,09,20,16,14,16.80
2009,09,20,16,15,16.80
2009,09,20,16,16,16.70
2009,09,20,16,17,16.70
2009,09,20,16,18,16.70
2009,09,20,16,19,16.70
2009,09,20,16,20,16.70
2009,09,20,16,21,16.70
2009,09,20,16,22,16.70
2009,09,20,16,23,16.70
2009,09,20,16,24,16.70
2009,09,20,16,25,16.70
2009,09,20,16,26,16.70
2009,09,20,16,27,16.70
2009,09,20,16,28,16.70
2009,09,20,16,29,16.70
2009,09,20,16,30,16.70
2009,09,20,16,31,16.70
2009,09,20,16,32,16.60
2009,09,20,16,33,16.60
2009,09,20,16,34,16.60
2009,09,20,16,35,16.60
2009,09,20,16,36,16.50
2009,09,20,16,37,16.40
2009,09,20,16,38,16.40
2009,09,20,16,39,16.40
2009,09,20,16,40,16.40
2009,09,20,16,41,16.40
2009,09,20,16,42,16.40
2009,09,20,16,43,16.40
2009,09,20,16,44,16.40
2009,09,20,16,45,16.40
2009,09,20,16,46,16.40
2009,09,20,16,47,16.40
2009,09,20,16,48,16.40
2009,09,20,16,49,16.40
2009,09,20,16,50,16.40
2009,09,20,16,51,16.40
2009,09,20,16,52,16.30
2009,09,20,16,53,16.30
2009,09,20,16,54,16.30
2009,09,20,16,55,16.30
2009,09,20,16,56,16.30
2009,09,20,16,57,16.20
2009,09,20,16,58,16.20
2009,09,20,16,59,16.20
2009,09,20,17,00,16.20
2009,09,20,17,01,16.30
2009,09,20,17,02,16.30
2009,09,20,17,03,16.30
2009,09,20,17,04,16.30
2009,09,20,17,05,16.30
2009,09,20,17,06,16.30
2009,09,20,17,07,16.30
2009,09,20,17,08,16.30
2009,09,20,17,09,16.30
2009,09,20,17,10,16.30
2009,09,20,17,11,16.30
2009,09,20,17,12,16.30
2009,09,20,17,13,16.30
2009,09,20,17,14,16.20
2009,09,20,17,15,16.20
2009,09,20,17,16,16.20
2009,09,20,17,17,16.10
2009,09,20,17,18,16.10
2009,09,20,17,19,16.10
2009,09,20,17,20,16.10
2009,09,20,17,21,16.10
2009,09,20,17,22,16.10
2009,09,20,17,23,16.10
2009,09,20,17,24,16.10
2009,09,20,17,25,16.10
2009,09,20,17,26,16.10
2009,09,20,17,27,16.10
2009,09,20,17,28,16.10
2009,09,20,17,29,16.10
2009,09,20,17,30,16.10
2009,09,20,17,31,16.20
2009,09,20,17,32,16.20
2009,09,20,17,33,16.20
2009,09,20,17,34,16.20
2009,09,20,17,35,16.20
2009,09,20,17,36,16.10
2009,09,20,17,37,16.10
2009,09,20,17,38,16.10
2009,09,20,17,39,16.10